Location: Unspecified
(50.7693°N, 0.0000°E)
Time: 05:22:12
(UTC+00:00)

SR - Pass Details

Date: 26 June 2019
Orbit: 580 x 876 km, 66.7° (Epoch: 22 July)

Event Time Altitude Azimuth Distance (km) Brightness Sun altitude
Rises 08:24:54 0° 321° (NW) 2,919 ? 40.1°
Reaches altitude 10° 08:28:00 10° 345° (NNW) 2,061 ? 40.6°
Maximum altitude 08:30:50 16° 22° (NNE) 1,758 ? 41.0°
Drops below altitude 10° 08:33:47 10° 60° (ENE) 2,167 ? 41.5°
Sets 08:37:09 0° 82° (E) 3,154 ? 42.0°
